Regional Weather Roundup
Issued by NWS

Home | Current Version | Previous Version | Text Only | Print | Product List | Glossary On
Versions: 1 2 3 4 5 6 7 8 9 10 11 12 13 14 15 16 17 18 19 20 21 22 23 24 25 26 27 28 29 30 31 32 33 34 35 36 37 38 39 40 41 42 43 44 45 46 47 48 49 50
000
ASUS44 KMEG 282210
RWRTN
TENNESSEE HOURLY STATE WEATHER ROUNDUP
NATIONAL WEATHER SERVICE MEMPHIS TN
500 PM CDT FRI APR 28 2017

TNZ002-004-019-021-049-052-054-088>092-282300-
WEST TENNESSEE

CITY           SKY/WX    TMP DP  RH WIND       PRES   REMARKS
MEMPHIS INTL   CLOUDY    83  73  72 S18G25    29.77R
NWS MEMPHIS      N/A     84 N/A N/A MISG        N/A
JACKSON        CLOUDY    82  72  71 S13G22    29.80S
DYERSBURG      PTSUNNY   82  71  69 S9G16     29.78S
SOMERVILLE     PTSUNNY   82  73  74 S7G13     29.78S
UNION CITY     MOSUNNY   79  72  78 S8        29.78R
BOLIVAR        MOSUNNY   82  72  69 SE12      29.79F
PARIS          MOSUNNY   75  70  83 S7        29.81S
HUNTINGDON     PTSUNNY   81  72  74 S10G16    29.80R
LEXINGTON      PTSUNNY   81  70  69 S9        29.82S
SAVANNAH       PTSUNNY   84  72  65 S12G18    29.82S
$$

TNZ008-025-027-028-033-062-065-066-282300-
NORTH MIDDLE TENNESSEE

CITY           SKY/WX    TMP DP  RH WIND       PRES   REMARKS
NASHVILLE      PTSUNNY   83  68  60 S13       29.87S
PORTLAND       PTSUNNY   77  70  78 S8        29.87R
CLARKSVILLE    MOSUNNY   79  67  66 S12       29.83R
SMYRNA         CLOUDY    81  68  64 S9G17     29.89S
COOKEVILLE     CLOUDY    79  66  65 S9        29.92S
GALLATIN       PTSUNNY   79  68  69 SE8       29.90R
CROSSVILLE     CLOUDY    75  63  66 MISG      30.00S
$$

TNZ061-075-076-078-094-096-097-282300-
SOUTH MIDDLE TENNESSEE

CITY           SKY/WX    TMP DP  RH WIND       PRES   REMARKS
TULLAHOMA      SUNNY     81  64  57 S12       29.93F
WINCHESTER     PTSUNNY   81  66  61 S9        29.94S
MCMINNVILLE    MOSUNNY   82  66  57 S9        29.93F
COLUMBIA       PTSUNNY   81  79  94 S12       29.86R
SHELBYVILLE    SUNNY     82  70  65 S18       29.90F
$$

TNZ017-018-042-046-047-282300-
NORTHEAST TENNESSEE

CITY           SKY/WX    TMP DP  RH WIND       PRES   REMARKS
TRI CITIES     MOSUNNY   85  57  38 CALM      29.97S
ELIZABETHTON   MOSUNNY   88  54  31 SW8       29.96S
$$

TNZ012-013-036-069-073-074-282300-
CENTRAL EAST TENNESSEE

CITY           SKY/WX    TMP DP  RH WIND       PRES   REMARKS
KNOXVILLE      MOSUNNY   82  65  56 W6        29.94S
OAK RIDGE      MOSUNNY   82  64  54 VRB5      29.97R
DOWNTOWN KNOXV SUNNY     82  66  57 W9        29.95R
GATLINBURG     SUNNY     84  61  45 W3        29.94S
MORRISTOWN     SUNNY     81  64  57 SW5       29.96S
JACKSBORO      CLOUDY    81  64  57 SW10      29.99R
$$

TNZ083-085-099-282300-
SOUTHEAST TENNESSEE

CITY           SKY/WX    TMP DP  RH WIND       PRES   REMARKS
CHATTANOOGA    PTSUNNY   84  64  50 S10G21    29.95F
$$

SKY/WX REPORTED AS FAIR MEANS FEW OR NO CLOUDS BELOW
12 THOUSAND FEET.




USA.gov is the U.S. government's official web portal to all federal, state and local government web resources and services.